Gage, OK

5:01 PM CST on December 04, 2016 (GMT -0600)
Gage

Weather History for KGAG - January, 2012

Change the Weather History Date:

Tuesday, January 31, 2012

  Actual Average Record
Temperature  
Mean Temperature 50 °F -  
Max Temperature 64 °F 51 °F 80 °F (1989)
Min Temperature 35 °F 23 °F -4 °F (1951)
Degree Days  
Heating Degree Days 14    
Moisture  
Dew Point 23 °F    
Average Humidity 40    
Maximum Humidity 64    
Minimum Humidity 15    
Precipitation  
Precipitation 0.00 in - - ()
Sea Level Pressure  
Sea Level Pressure 29.95 in    
Wind  
Wind Speed 15 mph (NW)    
Max Wind Speed 23 mph    
Max Gust Speed 34 mph    
Visibility 10 miles    
Events      
Averages and records for this station are not official NWS values.
T = Trace of Precipitation, MM = Missing Value Source: NWS Daily Summary

Daily Weather History Graph

Daily Weather History Graph

Search for Another Location

Airport or City:

Trip Planner

Search our weather history database for the weather conditions in past years. The results will help you decide how hot, cold, wet, or windy it might be!

Date:

Astronomy

Jan. 31, 2012 Rise Set
Actual Time 7:41 AM CST 6:04 PM CST
Civil Twilight 7:14 AM CST 6:31 PM CST
Nautical Twilight 6:43 AM CST 7:02 PM CST
Astronomical Twilight 6:13 AM CST 7:32 PM CST
Moon 11:56 AM CST (1/31) 1:30 AM CST (1/31)
Length of Visible Light 11h 16m
Length of Day
10h 22m
First Quarter, 55% of the Moon is Illuminated
Jan 31
First Quarter
Feb 7
Full
Feb 14
Last Quarter
Feb 21
New
Feb 29
First Quarter

Hourly Weather History & Observations

Time (CST) Temp. Windchill Dew Point Humidity Pressure Visibility Wind Dir Wind Speed Gust Speed Precip Events Conditions
12:53 AM 51.1 °F - 39.0 °F 63% 29.78 in 10.0 mi South 23.0 mph - N/A   Clear
1:53 AM 50.0 °F - 37.9 °F 63% 29.77 in 10.0 mi South 23.0 mph 34.5 mph N/A   Clear
2:53 AM 48.9 °F - 37.0 °F 64% 29.77 in 10.0 mi SSW 20.7 mph 29.9 mph N/A   Clear
3:53 AM 46.9 °F - 35.1 °F 63% 29.76 in 10.0 mi SSW 20.7 mph - N/A   Clear
4:53 AM 45.0 °F 37.6 °F 30.9 °F 58% 29.79 in 10.0 mi SW 17.3 mph - N/A   Clear
5:53 AM 39.0 °F 31.8 °F 26.1 °F 60% 29.82 in 10.0 mi SW 11.5 mph - N/A   Clear
6:53 AM 39.0 °F 31.8 °F 19.0 °F 45% 29.86 in 10.0 mi West 11.5 mph - N/A   Clear
7:53 AM 39.0 °F 32.8 °F 21.0 °F 49% 29.91 in 10.0 mi NW 9.2 mph - N/A   Clear
8:53 AM 46.4 °F 40.4 °F 21.2 °F 37% 29.96 in 10.0 mi NNW 13.8 mph - N/A   Clear
9:53 AM 54.0 °F - 21.9 °F 29% 29.96 in 10.0 mi North 13.8 mph 20.7 mph N/A   Clear
10:53 AM 57.0 °F - 21.9 °F 26% 29.97 in 10.0 mi NNE 16.1 mph 26.5 mph N/A   Clear
11:53 AM 61.0 °F - 21.0 °F 21% 29.97 in 10.0 mi North 20.7 mph 26.5 mph N/A   Clear
12:53 PM 61.0 °F - 19.9 °F 21% 29.96 in 10.0 mi North 13.8 mph - N/A   Clear
1:53 PM 64.0 °F - 19.0 °F 18% 29.95 in 10.0 mi North 15.0 mph - N/A   Clear
2:53 PM 64.9 °F - 16.0 °F 15% 29.95 in 10.0 mi North 13.8 mph - N/A   Clear
3:53 PM 64.9 °F - 15.1 °F 15% 29.98 in 10.0 mi North 9.2 mph - N/A   Clear
4:53 PM 62.1 °F - 16.0 °F 17% 29.99 in 10.0 mi North 10.4 mph - N/A   Clear
5:53 PM 54.0 °F - 19.0 °F 25% 30.02 in 10.0 mi North 5.8 mph - N/A   Clear
6:53 PM 48.0 °F - 19.9 °F 33% 30.06 in 10.0 mi Calm Calm - N/A   Clear
7:53 PM 45.0 °F - 19.9 °F 37% 30.09 in 10.0 mi Calm Calm - N/A   Clear
8:53 PM 37.9 °F - 19.0 °F 47% 30.10 in 10.0 mi Calm Calm - N/A   Clear
9:53 PM 39.0 °F - 19.9 °F 46% 30.10 in 10.0 mi Calm Calm - N/A   Clear
10:53 PM 39.0 °F 36.8 °F 21.0 °F 49% 30.10 in 10.0 mi SW 3.5 mph - N/A   Clear
11:53 PM 35.1 °F - 23.0 °F 61% 30.09 in 10.0 mi Calm Calm - N/A   Clear